| time (UTC) | temp F | wind direction | speed MPH | gust MPH | rain 1hr in | rain 24hr in | rain mn in | humidity % | barometer mb |
| 20260505225853 | 0 | 0.0 | 0.0 | 0.00 | 0.00 | 0.00 | 1008.7 | ||
| 20260505225342 | 0 | 0.0 | 0.0 | 0.00 | 0.00 | 0.00 | 1008.7 | ||
| 20260505224850 | 0 | 0.0 | 0.0 | 0.00 | 0.00 | 0.00 | 1008.7 | ||
| 20260505224359 | 0 | 0.0 | 0.0 | 0.00 | 0.00 | 0.00 | 1008.7 | ||
| 20260505223845 | 0 | 0.0 | 0.0 | 0.00 | 0.00 | 0.00 | 1008.8 | ||
| 20260505222854 | 82 | 5 | 5.0 | 12.0 | 0.00 | 0.00 | 0.00 | 30 | 1008.8 |
| 20260505222342 | 82 | 5 | 6.0 | 12.0 | 0.00 | 0.00 | 0.00 | 30 | 1008.8 |
| 20260505221848 | 82 | 5 | 6.0 | 16.0 | 0.00 | 0.00 | 0.00 | 30 | 1008.8 |
| 20260505221354 | 82 | 5 | 6.0 | 14.0 | 0.00 | 0.00 | 0.00 | 30 | 1008.8 |
| 20260505220900 | 82 | 5 | 5.0 | 15.0 | 0.00 | 0.00 | 0.00 | 30 | 1008.8 |
| 20260505220349 | 82 | 5 | 5.0 | 16.0 | 0.00 | 0.00 | 0.00 | 30 | 1008.8 |
| 20260505215855 | 82 | 9 | 8.0 | 14.0 | 0.00 | 0.00 | 0.00 | 30 | 1008.8 |
| 20260505215401 | 82 | 5 | 5.0 | 10.0 | 0.00 | 0.00 | 0.00 | 31 | 1008.7 |
| 20260505214846 | 82 | 5 | 2.0 | 14.0 | 0.00 | 0.00 | 0.00 | 31 | 1008.7 |
| 20260505214350 | 82 | 5 | 5.0 | 15.0 | 0.00 | 0.00 | 0.00 | 31 | 1008.7 |
| 20260505213856 | 82 | 5 | 4.0 | 15.0 | 0.00 | 0.00 | 0.00 | 31 | 1008.8 |
| 20260505213346 | 82 | 5 | 5.0 | 14.0 | 0.00 | 0.00 | 0.00 | 31 | 1008.7 |
| 20260505212852 | 82 | 5 | 5.0 | 16.0 | 0.00 | 0.00 | 0.00 | 30 | 1008.7 |
| 20260505212340 | 83 | 5 | 7.0 | 16.0 | 0.00 | 0.00 | 0.00 | 30 | 1008.7 |
| 20260505211848 | 83 | 5 | 7.0 | 14.0 | 0.00 | 0.00 | 0.00 | 30 | 1008.6 |
| 20260505211356 | 83 | 360 | 6.0 | 20.0 | 0.00 | 0.00 | 0.00 | 30 | 1008.6 |
| 20260505210844 | 84 | 5 | 10.0 | 20.0 | 0.00 | 0.00 | 0.00 | 30 | 1008.7 |
| 20260505210352 | 83 | 5 | 7.0 | 17.0 | 0.00 | 0.00 | 0.00 | 31 | 1008.4 |
| 20260505205916 | 83 | 5 | 5.0 | 16.0 | 0.00 | 0.00 | 0.00 | 31 | 1008.6 |
| 20260505205340 | 83 | 5 | 9.0 | 16.0 | 0.00 | 0.00 | 0.00 | 30 | 1008.6 |
| 20260505204849 | 84 | 5 | 5.0 | 14.0 | 0.00 | 0.00 | 0.00 | 31 | 1008.6 |
| 20260505204417 | 84 | 5 | 4.0 | 14.0 | 0.00 | 0.00 | 0.00 | 30 | 1008.5 |
| 20260505203843 | 83 | 5 | 5.0 | 14.0 | 0.00 | 0.00 | 0.00 | 30 | 1008.5 |
| 20260505203353 | 83 | 5 | 6.0 | 19.0 | 0.00 | 0.00 | 0.00 | 30 | 1008.7 |
| 20260505202838 | 83 | 5 | 6.0 | 19.0 | 0.00 | 0.00 | 0.00 | 31 | 1008.7 |
| 20260505202346 | 83 | 5 | 5.0 | 16.0 | 0.00 | 0.00 | 0.00 | 33 | 1008.7 |
| 20260505201854 | 83 | 5 | 2.0 | 19.0 | 0.00 | 0.00 | 0.00 | 33 | 1008.7 |
| 20260505201344 | 83 | 5 | 9.0 | 19.0 | 0.00 | 0.00 | 0.00 | 31 | 1008.8 |
| 20260505200854 | 83 | 5 | 4.0 | 13.0 | 0.00 | 0.00 | 0.00 | 31 | 1008.8 |
| 20260505200342 | 83 | 5 | 4.0 | 18.0 | 0.00 | 0.00 | 0.00 | 30 | 1008.8 |
| 20260505195850 | 83 | 5 | 6.0 | 18.0 | 0.00 | 0.00 | 0.00 | 30 | 1009.0 |
| 20260505195355 | 83 | 5 | 6.0 | 14.0 | 0.00 | 0.00 | 0.00 | 31 | 1009.1 |
| 20260505194905 | 83 | 5 | 3.0 | 14.0 | 0.00 | 0.00 | 0.00 | 32 | 1009.0 |
| 20260505194415 | 83 | 5 | 6.0 | 18.0 | 0.00 | 0.00 | 0.00 | 31 | 1009.1 |
| 20260505193846 | 84 | 5 | 6.0 | 18.0 | 0.00 | 0.00 | 0.00 | 31 | 1009.1 |
| 20260505193359 | 84 | 5 | 4.0 | 18.0 | 0.00 | 0.00 | 0.00 | 30 | 1009.1 |
| 20260505192845 | 84 | 5 | 4.0 | 16.0 | 0.00 | 0.00 | 0.00 | 31 | 1009.1 |
| 20260505192352 | 83 | 5 | 7.0 | 13.0 | 0.00 | 0.00 | 0.00 | 31 | 1009.1 |
| 20260505191839 | 83 | 5 | 7.0 | 20.0 | 0.00 | 0.00 | 0.00 | 31 | 1009.2 |
| 20260505191349 | 83 | 5 | 5.0 | 20.0 | 0.00 | 0.00 | 0.00 | 31 | 1009.3 |
| 20260505190857 | 83 | 5 | 5.0 | 20.0 | 0.00 | 0.00 | 0.00 | 31 | 1009.3 |
| 20260505190347 | 83 | 5 | 7.0 | 14.0 | 0.00 | 0.00 | 0.00 | 31 | 1009.3 |
| 20260505185851 | 83 | 5 | 5.0 | 17.0 | 0.00 | 0.00 | 0.00 | 32 | 1009.4 |
| 20260505185345 | 83 | 5 | 9.0 | 17.0 | 0.00 | 0.00 | 0.00 | 30 | 1009.7 |
| 20260505184859 | 83 | 5 | 7.0 | 16.0 | 0.00 | 0.00 | 0.00 | 31 | 1009.6 |
| 20260505184348 | 83 | 5 | 6.0 | 11.0 | 0.00 | 0.00 | 0.00 | 32 | 1009.6 |
| 20260505183857 | 83 | 5 | 5.0 | 16.0 | 0.00 | 0.00 | 0.00 | 33 | 1009.6 |
| 20260505183348 | 83 | 5 | 5.0 | 18.0 | 0.00 | 0.00 | 0.00 | 33 | 1009.6 |
| 20260505182854 | 83 | 5 | 7.0 | 15.0 | 0.00 | 0.00 | 0.00 | 33 | 1009.6 |
| 20260505182343 | 83 | 5 | 5.0 | 13.0 | 0.00 | 0.00 | 0.00 | 33 | 1009.7 |
| 20260505181910 | 83 | 5 | 6.0 | 15.0 | 0.00 | 0.00 | 0.00 | 34 | 1009.8 |
| 20260505181357 | 83 | 5 | 7.0 | 15.0 | 0.00 | 0.00 | 0.00 | 33 | 1009.9 |
| 20260505180844 | 83 | 5 | 5.0 | 14.0 | 0.00 | 0.00 | 0.00 | 33 | 1009.9 |
| 20260505180354 | 83 | 5 | 6.0 | 15.0 | 0.00 | 0.00 | 0.00 | 34 | 1009.8 |
| 20260505175840 | 83 | 5 | 5.0 | 15.0 | 0.00 | 0.00 | 0.00 | 35 | 1009.9 |
| 20260505175351 | 82 | 5 | 4.0 | 15.0 | 0.00 | 0.00 | 0.00 | 35 | 1010.0 |
| 20260505174841 | 82 | 5 | 6.0 | 15.0 | 0.00 | 0.00 | 0.00 | 35 | 1010.0 |
| 20260505174347 | 82 | 5 | 5.0 | 15.0 | 0.00 | 0.00 | 0.00 | 35 | 1010.1 |
| 20260505173852 | 82 | 5 | 6.0 | 14.0 | 0.00 | 0.00 | 0.00 | 34 | 1010.2 |
| 20260505173343 | 82 | 5 | 5.0 | 13.0 | 0.00 | 0.00 | 0.00 | 35 | 1010.1 |
| 20260505172851 | 82 | 5 | 3.0 | 13.0 | 0.00 | 0.00 | 0.00 | 37 | 1010.2 |
| 20260505172345 | 82 | 5 | 6.0 | 13.0 | 0.00 | 0.00 | 0.00 | 36 | 1010.3 |
| 20260505171916 | 82 | 5 | 5.0 | 11.0 | 0.00 | 0.00 | 0.00 | 38 | 1010.4 |
| 20260505171345 | 81 | 5 | 3.0 | 10.0 | 0.00 | 0.00 | 0.00 | 37 | 1010.3 |
| 20260505170853 | 81 | 5 | 5.0 | 10.0 | 0.00 | 0.00 | 0.00 | 37 | 1010.4 |
| 20260505170402 | 81 | 5 | 3.0 | 12.0 | 0.00 | 0.00 | 0.00 | 38 | 1010.4 |
| 20260505165848 | 81 | 5 | 5.0 | 12.0 | 0.00 | 0.00 | 0.00 | 39 | 1010.6 |
| 20260505165359 | 81 | 5 | 4.0 | 16.0 | 0.00 | 0.00 | 0.00 | 39 | 1010.7 |
| 20260505164846 | 81 | 5 | 7.0 | 16.0 | 0.00 | 0.00 | 0.00 | 38 | 1010.8 |
| 20260505164355 | 80 | 5 | 4.0 | 13.0 | 0.00 | 0.00 | 0.00 | 38 | 1010.9 |
| 20260505163842 | 80 | 5 | 3.0 | 13.0 | 0.00 | 0.00 | 0.00 | 40 | 1010.9 |
| 20260505163356 | 80 | 5 | 5.0 | 13.0 | 0.00 | 0.00 | 0.00 | 40 | 1011.0 |
| 20260505162844 | 80 | 5 | 4.0 | 10.0 | 0.00 | 0.00 | 0.00 | 40 | 1011.1 |
| 20260505162353 | 80 | 5 | 4.0 | 13.0 | 0.00 | 0.00 | 0.00 | 40 | 1011.1 |
| 20260505161840 | 79 | 360 | 7.0 | 19.0 | 0.00 | 0.00 | 0.00 | 40 | 1011.2 |
| 20260505161409 | 79 | 5 | 7.0 | 19.0 | 0.00 | 0.00 | 0.00 | 40 | 1011.3 |
| 20260505160857 | 79 | 5 | 3.0 | 16.0 | 0.00 | 0.00 | 0.00 | 41 | 1011.2 |
| 20260505160346 | 80 | 5 | 7.0 | 16.0 | 0.00 | 0.00 | 0.00 | 41 | 1011.1 |
| 20260505153353 | 78 | 5 | 4.0 | 14.0 | 0.00 | 0.00 | 0.00 | 42 | 1011.2 |
| 20260505152857 | 78 | 5 | 3.0 | 11.0 | 0.00 | 0.00 | 0.00 | 42 | 1011.1 |
| 20260505152345 | 78 | 5 | 3.0 | 10.0 | 0.00 | 0.00 | 0.00 | 44 | 1011.1 |
| 20260505151854 | 78 | 5 | 4.0 | 12.0 | 0.00 | 0.00 | 0.00 | 43 | 1011.1 |
| 20260505151422 | 78 | 5 | 5.0 | 12.0 | 0.00 | 0.00 | 0.00 | 43 | 1011.2 |
| 20260505150847 | 78 | 5 | 1.0 | 16.0 | 0.00 | 0.00 | 0.00 | 44 | 1011.2 |
| 20260505150352 | 77 | 5 | 5.0 | 12.0 | 0.00 | 0.00 | 0.00 | 44 | 1011.2 |
| 20260505140350 | 74 | 5 | 4.0 | 10.0 | 0.00 | 0.00 | 0.00 | 49 | 1011.6 |
| 20260505124840 | 67 | 5 | 2.0 | 8.0 | 0.00 | 0.00 | 0.00 | 59 | 1012.2 |
| 20260505124350 | 67 | 5 | 1.0 | 8.0 | 0.00 | 0.00 | 0.00 | 60 | 1012.3 |
| 20260505123840 | 67 | 5 | 1.0 | 6.0 | 0.00 | 0.00 | 0.00 | 60 | 1012.3 |
| 20260505123355 | 66 | 5 | 3.0 | 6.0 | 0.00 | 0.00 | 0.00 | 61 | 1012.3 |
| 20260505122841 | 66 | 5 | 2.0 | 6.0 | 0.00 | 0.00 | 0.00 | 62 | 1012.3 |
| 20260505122355 | 65 | 5 | 0.0 | 5.0 | 0.00 | 0.00 | 0.00 | 65 | 1012.3 |
| 20260505121845 | 0 | 0.0 | 0.0 | 0.00 | 0.00 | 0.00 | 1012.3 | ||
| 20260505121337 | 0 | 0.0 | 0.0 | 0.00 | 0.00 | 0.00 | 1012.2 | ||
| 20260505120849 | 0 | 0.0 | 0.0 | 0.00 | 0.00 | 0.00 | 1012.2 | ||
| 20260505120346 | 0 | 0.0 | 0.0 | 0.00 | 0.00 | 0.00 | 1012.2 | ||
| 20260505115851 | 0 | 0.0 | 0.0 | 0.00 | 0.00 | 0.00 | 1012.1 | ||
| 20260505115356 | 0 | 0.0 | 0.0 | 0.00 | 0.00 | 0.00 | 1012.1 | ||
| 20260505114908 | 0 | 0.0 | 0.0 | 0.00 | 0.00 | 0.00 | 1012.0 | ||
| 20260505113405 | 61 | 5 | 0.0 | 0.0 | 0.00 | 0.00 | 0.00 | 71 | 1011.6 |
| 20260505112851 | 0 | 0.0 | 0.0 | 0.00 | 0.00 | 0.00 | 1011.6 | ||
| 20260505112405 | 0 | 0.0 | 0.0 | 0.00 | 0.00 | 0.00 | 1011.6 | ||
| 20260505111853 | 0 | 0.0 | 0.0 | 0.00 | 0.00 | 0.00 | 1011.6 | ||
| 20260505111403 | 0 | 0.0 | 0.0 | 0.00 | 0.00 | 0.00 | 1011.5 | ||
| 20260505110855 | 0 | 0.0 | 0.0 | 0.00 | 0.00 | 0.00 | 1011.5 | ||
| 20260505110409 | 0 | 0.0 | 0.0 | 0.00 | 0.00 | 0.00 | 1011.5 | ||
| 20260505101858 | 0 | 0.0 | 0.0 | 0.00 | 0.00 | 0.00 | 1011.0 | ||
| 20260505101406 | 0 | 0.0 | 0.0 | 0.00 | 0.00 | 0.00 | 1010.9 | ||
| 20260505100854 | 0 | 0.0 | 0.0 | 0.00 | 0.00 | 0.00 | 1010.9 | ||
| 20260505100345 | 0 | 0.0 | 0.0 | 0.00 | 0.00 | 0.00 | 1010.8 | ||
| 20260505095849 | 0 | 0.0 | 0.0 | 0.00 | 0.00 | 0.00 | 1010.8 | ||
| 20260505095358 | 0 | 0.0 | 0.0 | 0.00 | 0.00 | 0.00 | 1010.7 | ||
| 20260505094848 | 0 | 0.0 | 0.0 | 0.00 | 0.00 | 0.00 | 1010.8 | ||
| 20260505094353 | 0 | 0.0 | 0.0 | 0.00 | 0.00 | 0.00 | 1010.9 | ||
| 20260505093900 | 0 | 0.0 | 0.0 | 0.00 | 0.00 | 0.00 | 1010.9 | ||
| 20260505093409 | 0 | 0.0 | 0.0 | 0.00 | 0.00 | 0.00 | 1010.9 | ||
| 20260505092911 | 0 | 0.0 | 0.0 | 0.00 | 0.00 | 0.00 | 1010.8 | ||
| 20260505092339 | 0 | 0.0 | 0.0 | 0.00 | 0.00 | 0.00 | 1010.8 | ||
| 20260505091850 | 0 | 0.0 | 0.0 | 0.00 | 0.00 | 0.00 | 1010.7 | ||
| 20260505091357 | 0 | 0.0 | 0.0 | 0.00 | 0.00 | 0.00 | 1010.6 | ||
| 20260505090842 | 0 | 0.0 | 0.0 | 0.00 | 0.00 | 0.00 | 1010.6 | ||
| 20260505090413 | 0 | 0.0 | 0.0 | 0.00 | 0.00 | 0.00 | 1010.7 | ||
| 20260505085857 | 0 | 0.0 | 0.0 | 0.00 | 0.00 | 0.00 | 1010.7 | ||
| 20260505085404 | 0 | 0.0 | 0.0 | 0.00 | 0.00 | 0.00 | 1010.8 | ||
| 20260505084851 | 0 | 0.0 | 0.0 | 0.00 | 0.00 | 0.00 | 1010.8 | ||
| 20260505084358 | 0 | 0.0 | 0.0 | 0.00 | 0.00 | 0.00 | 1010.7 | ||
| 20260505083846 | 0 | 0.0 | 0.0 | 0.00 | 0.00 | 0.00 | 1010.6 | ||
| 20260505083354 | 0 | 0.0 | 0.0 | 0.00 | 0.00 | 0.00 | 1010.7 | ||
| 20260505082839 | 0 | 0.0 | 0.0 | 0.00 | 0.00 | 0.00 | 1010.6 | ||
| 20260505082352 | 0 | 0.0 | 0.0 | 0.00 | 0.00 | 0.00 | 1010.6 | ||
| 20260505081844 | 0 | 0.0 | 0.0 | 0.00 | 0.00 | 0.00 | 1010.6 | ||
| 20260505081413 | 0 | 0.0 | 0.0 | 0.00 | 0.00 | 0.00 | 1010.5 | ||
| 20260505080842 | 0 | 0.0 | 0.0 | 0.00 | 0.00 | 0.00 | 1010.5 | ||
| 20260505080352 | 0 | 0.0 | 0.0 | 0.00 | 0.00 | 0.00 | 1010.5 | ||
| 20260505075840 | 0 | 0.0 | 0.0 | 0.00 | 0.00 | 0.00 | 1010.5 | ||
| 20260505075353 | 0 | 0.0 | 0.0 | 0.00 | 0.00 | 0.00 | 1010.5 | ||
| 20260505074846 | 0 | 0.0 | 0.0 | 0.00 | 0.00 | 0.00 | 1010.5 | ||
| 20260505074340 | 0 | 0.0 | 0.0 | 0.00 | 0.00 | 0.00 | 1010.5 | ||
| 20260505073850 | 0 | 0.0 | 0.0 | 0.00 | 0.00 | 0.00 | 1010.4 | ||
| 20260505073342 | 0 | 0.0 | 0.0 | 0.00 | 0.00 | 0.00 | 1010.3 | ||
| 20260505072850 | 0 | 0.0 | 0.0 | 0.00 | 0.00 | 0.00 | 1010.3 | ||
| 20260505072339 | 0 | 0.0 | 0.0 | 0.00 | 0.00 | 0.00 | 1010.4 | ||
| 20260505071849 | 0 | 0.0 | 0.0 | 0.00 | 0.00 | 0.00 | 1010.3 | ||
| 20260505071338 | 0 | 0.0 | 0.0 | 0.00 | 0.00 | 0.00 | 1010.2 | ||
| 20260505070910 | 0 | 0.0 | 0.0 | 0.00 | 0.00 | 0.00 | 1010.3 | ||
| 20260505070421 | 0 | 0.0 | 0.0 | 0.00 | 0.00 | 0.00 | 1010.4 | ||
| 20260505065847 | 0 | 0.0 | 0.0 | 0.00 | 0.00 | 0.00 | 1010.4 | ||
| 20260505065356 | 0 | 0.0 | 0.0 | 0.00 | 0.00 | 0.00 | 1010.4 | ||
| 20260505064846 | 0 | 0.0 | 0.0 | 0.00 | 0.00 | 0.00 | 1010.4 | ||
| 20260505064338 | 0 | 0.0 | 0.0 | 0.00 | 0.00 | 0.00 | 1010.5 | ||
| 20260505063848 | 0 | 0.0 | 0.0 | 0.00 | 0.00 | 0.00 | 1010.6 | ||
| 20260505063420 | 0 | 0.0 | 0.0 | 0.00 | 0.00 | 0.00 | 1010.7 | ||
| 20260505062848 | 0 | 0.0 | 0.0 | 0.00 | 0.00 | 0.00 | 1010.7 | ||
| 20260505062344 | 0 | 0.0 | 0.0 | 0.00 | 0.00 | 0.00 | 1010.8 | ||
| 20260505061838 | 0 | 0.0 | 0.0 | 0.00 | 0.00 | 0.00 | 1010.8 | ||
| 20260505061349 | 0 | 0.0 | 0.0 | 0.00 | 0.00 | 0.00 | 1010.7 | ||
| 20260505060855 | 0 | 0.0 | 0.0 | 0.00 | 0.00 | 0.00 | 1010.8 | ||
| 20260505060403 | 0 | 0.0 | 0.0 | 0.00 | 0.00 | 0.00 | 1010.8 | ||
| 20260505055846 | 0 | 0.0 | 0.0 | 0.00 | 0.00 | 0.00 | 1010.8 | ||
| 20260505055416 | 0 | 0.0 | 0.0 | 0.00 | 0.00 | 0.00 | 1010.8 | ||
| 20260505054844 | 0 | 0.0 | 0.0 | 0.00 | 0.00 | 0.00 | 1010.7 | ||
| 20260505054352 | 0 | 0.0 | 0.0 | 0.00 | 0.00 | 0.00 | 1010.6 | ||
| 20260505053921 | 0 | 0.0 | 0.0 | 0.00 | 0.00 | 0.00 | 1010.8 | ||
| 20260505053349 | 0 | 0.0 | 0.0 | 0.00 | 0.00 | 0.00 | 1010.8 | ||
| 20260505052851 | 0 | 0.0 | 0.0 | 0.00 | 0.00 | 0.00 | 1010.8 | ||
| 20260505052355 | 0 | 0.0 | 0.0 | 0.00 | 0.00 | 0.00 | 1010.8 | ||
| 20260505051900 | 0 | 0.0 | 0.0 | 0.00 | 0.00 | 0.00 | 1010.6 | ||
| 20260505051348 | 0 | 0.0 | 0.0 | 0.00 | 0.00 | 0.00 | 1010.6 | ||
| 20260505050918 | 0 | 0.0 | 0.0 | 0.00 | 0.00 | 0.00 | 1010.7 | ||
| 20260505050349 | 0 | 0.0 | 0.0 | 0.00 | 0.00 | 0.00 | 1010.8 | ||
| 20260505041349 | 0 | 0.0 | 0.0 | 0.00 | 0.00 | 0.00 | 1010.6 | ||
| 20260505040858 | 0 | 0.0 | 0.0 | 0.00 | 0.00 | 0.00 | 1010.6 | ||
| 20260505040349 | 0 | 0.0 | 0.0 | 0.00 | 0.00 | 0.00 | 1010.6 | ||
| 20260505035839 | 0 | 0.0 | 0.0 | 0.00 | 0.00 | 0.00 | 1010.6 | ||
| 20260505035349 | 0 | 0.0 | 0.0 | 0.00 | 0.00 | 0.00 | 1010.6 | ||
| 20260505034841 | 0 | 0.0 | 0.0 | 0.00 | 0.00 | 0.00 | 1010.5 | ||
| 20260505034352 | 0 | 0.0 | 0.0 | 0.00 | 0.00 | 0.00 | 1010.4 | ||
| 20260505033842 | 0 | 0.0 | 0.0 | 0.00 | 0.00 | 0.00 | 1010.3 | ||
| 20260505033353 | 0 | 0.0 | 0.0 | 0.00 | 0.00 | 0.00 | 1010.4 | ||
| 20260505032858 | 0 | 0.0 | 0.0 | 0.00 | 0.00 | 0.00 | 1010.3 | ||
| 20260505032348 | 0 | 0.0 | 0.0 | 0.00 | 0.00 | 0.00 | 1010.3 | ||
| 20260505031840 | 0 | 0.0 | 0.0 | 0.00 | 0.00 | 0.00 | 1010.3 | ||
| 20260505031350 | 0 | 0.0 | 0.0 | 0.00 | 0.00 | 0.00 | 1010.3 | ||
| 20260505030900 | 0 | 0.0 | 0.0 | 0.00 | 0.00 | 0.00 | 1010.2 | ||
| 20260505030408 | 0 | 0.0 | 0.0 | 0.00 | 0.00 | 0.00 | 1010.3 | ||
| 20260505025855 | 0 | 0.0 | 0.0 | 0.00 | 0.00 | 0.00 | 1010.3 | ||
| 20260505025347 | 0 | 0.0 | 0.0 | 0.00 | 0.00 | 0.00 | 1010.4 | ||
| 20260505024842 | 0 | 0.0 | 0.0 | 0.00 | 0.00 | 0.00 | 1010.5 | ||
| 20260505024352 | 0 | 0.0 | 0.0 | 0.00 | 0.00 | 0.00 | 1010.5 | ||
| 20260505023900 | 0 | 0.0 | 0.0 | 0.00 | 0.00 | 0.00 | 1010.5 | ||
| 20260505023347 | 0 | 0.0 | 0.0 | 0.00 | 0.00 | 0.00 | 1010.5 | ||
| 20260505022853 | 0 | 0.0 | 0.0 | 0.00 | 0.00 | 0.00 | 1010.6 | ||
| 20260505022359 | 0 | 0.0 | 0.0 | 0.00 | 0.00 | 0.00 | 1010.5 | ||
| 20260505021847 | 0 | 0.0 | 0.0 | 0.00 | 0.00 | 0.00 | 1010.5 | ||
| 20260505021357 | 0 | 0.0 | 0.0 | 0.00 | 0.00 | 0.00 | 1010.4 | ||
| 20260505020844 | 0 | 0.0 | 0.0 | 0.00 | 0.00 | 0.00 | 1010.5 | ||
| 20260505020354 | 0 | 0.0 | 0.0 | 0.00 | 0.00 | 0.00 | 1010.4 | ||
| 20260505015857 | 0 | 0.0 | 0.0 | 0.00 | 0.00 | 0.00 | 1010.4 | ||
| 20260505015404 | 0 | 0.0 | 0.0 | 0.00 | 0.00 | 0.00 | 1010.4 | ||
| 20260505014849 | 0 | 0.0 | 0.0 | 0.00 | 0.00 | 0.00 | 1010.5 | ||
| 20260505014337 | 0 | 0.0 | 0.0 | 0.00 | 0.00 | 0.00 | 1010.5 | ||
| 20260505013849 | 0 | 0.0 | 0.0 | 0.00 | 0.00 | 0.00 | 1010.6 | ||
| 20260505013343 | 0 | 0.0 | 0.0 | 0.00 | 0.00 | 0.00 | 1010.6 | ||
| 20260505012853 | 0 | 0.0 | 0.0 | 0.00 | 0.00 | 0.00 | 1010.6 | ||
| 20260505012344 | 0 | 0.0 | 0.0 | 0.00 | 0.00 | 0.00 | 1010.5 | ||
| 20260505011914 | 0 | 0.0 | 0.0 | 0.00 | 0.00 | 0.00 | 1010.4 | ||
| 20260505011342 | 0 | 0.0 | 0.0 | 0.00 | 0.00 | 0.00 | 1010.4 | ||
| 20260505010852 | 0 | 0.0 | 0.0 | 0.00 | 0.00 | 0.00 | 1010.3 | ||
| 20260505010403 | 0 | 0.0 | 0.0 | 0.00 | 0.00 | 0.00 | 1010.2 | ||
| 20260505005848 | 0 | 0.0 | 0.0 | 0.00 | 0.00 | 0.00 | 1010.1 | ||
| 20260505005339 | 0 | 0.0 | 0.0 | 0.00 | 0.00 | 0.00 | 1010.1 | ||
| 20260505004850 | 0 | 0.0 | 0.0 | 0.00 | 0.00 | 0.00 | 1010.0 | ||
| 20260505004339 | 0 | 0.0 | 0.0 | 0.00 | 0.00 | 0.00 | 1010.0 | ||
| 20260505003848 | 0 | 0.0 | 0.0 | 0.00 | 0.00 | 0.00 | 1010.0 | ||
| 20260505003359 | 0 | 0.0 | 0.0 | 0.00 | 0.00 | 0.00 | 1010.0 | ||
| 20260505002846 | 0 | 0.0 | 0.0 | 0.00 | 0.00 | 0.00 | 1009.9 | ||
| 20260505002337 | 0 | 0.0 | 0.0 | 0.00 | 0.00 | 0.00 | 1009.9 | ||
| 20260505001850 | 0 | 0.0 | 0.0 | 0.00 | 0.00 | 0.00 | 1009.9 | ||
| 20260505001342 | 0 | 0.0 | 0.0 | 0.00 | 0.00 | 0.00 | 1009.9 | ||
| 20260505000854 | 0 | 0.0 | 0.0 | 0.00 | 0.00 | 0.00 | 1009.8 | ||
| 20260505000408 | 0 | 0.0 | 0.0 | 0.00 | 0.00 | 0.00 | 1009.7 | ||
| 20260504235854 | 0 | 0.0 | 0.0 | 0.00 | 0.00 | 0.00 | 1009.7 | ||
| 20260504235408 | 0 | 0.0 | 0.0 | 0.00 | 0.00 | 0.00 | 1009.7 | ||
| 20260504234855 | 0 | 0.0 | 0.0 | 0.00 | 0.00 | 0.00 | 1009.7 | ||
| 20260504234344 | 0 | 0.0 | 0.0 | 0.00 | 0.00 | 0.00 | 1009.7 | ||
| 20260504233841 | 0 | 0.0 | 0.0 | 0.00 | 0.00 | 0.00 | 1009.7 | ||
| 20260504233353 | 0 | 0.0 | 0.0 | 0.00 | 0.00 | 0.00 | 1009.7 | ||
| 20260504232858 | 0 | 0.0 | 0.0 | 0.00 | 0.00 | 0.00 | 1009.7 | ||
| 20260504232345 | 0 | 0.0 | 0.0 | 0.00 | 0.00 | 0.00 | 1009.6 | ||
| 20260504231911 | 0 | 0.0 | 0.0 | 0.00 | 0.00 | 0.00 | 1009.6 | ||
| 20260504231336 | 0 | 0.0 | 0.0 | 0.00 | 0.00 | 0.00 | 1009.7 | ||
| 20260504230848 | 0 | 0.0 | 0.0 | 0.00 | 0.00 | 0.00 | 1009.7 | ||
| 20260504230343 | 0 | 0.0 | 0.0 | 0.00 | 0.00 | 0.00 | 1009.7 |